This demonstration page uses our WeatherBlox Daily Observations layout. Learn more.

Left ArrowRight Arrow

38.80484, -77.04692

Hourly Observations for April 17, 2016

Temp ( °F °C ) Dew Point ( °F °C ) Humidity (%) Winds ( mph kmh ) Pressure ( in mb ) Visibility ( mi km ) Precip ( " mm )
12:52 am 00:52 Clear 51 10.6 39 3.9 64 64 S 7 11 30.42 1030 10 16 0.00 0.00
1:52 am 01:52 Clear 51 10.6 39 3.9 64 64 ESE 6 9 30.43 1031 10 16 0.00 0.00
2:52 am 02:52 Clear 49 9.4 38 3.3 66 66 SE 5 7 30.43 1031 10 16 0.00 0.00
3:52 am 03:52 Mostly Clear 49 9.4 38 3.3 66 66 ESE 5 7 30.43 1031 10 16 0.00 0.00
4:52 am 04:52 Clear 48 8.9 39 3.9 71 71 Calm 30.43 1031 10 16 0.00 0.00
5:52 am 05:52 Clear 49 9.4 40 4.4 71 71 Calm 30.45 1031 10 16 0.00 0.00
6:52 am 06:52 Sunny 48 8.9 36 2.2 63 63 Calm 30.46 1032 10 16 0.00 0.00
7:52 am 07:52 Sunny 50 10 38 3.3 63 63 NE 5 7 30.48 1032 10 16 0.00 0.00
8:52 am 08:52 Sunny 53 11.7 34 1.1 48 48 NE 6 9 30.48 1032 10 16 0.00 0.00
9:52 am 09:52 Sunny 56 13.3 35 1.7 46 46 Calm 30.49 1033 10 16 0.00 0.00
10:52 am 10:52 Mostly Sunny 59 15 31 -0.6 35 35 E 3 6 30.48 1032 10 16 0.00 0.00
11:52 am 11:52 Mostly Sunny 62 16.7 34 1.1 35 35 ENE 5 7 30.47 1032 10 16 0.00 0.00
12:52 pm 12:52 Partly Cloudy 64 17.8 34 1.1 33 33 E 5 7 30.44 1031 10 16 0.00 0.00
1:52 pm 13:52 Mostly Sunny 66 18.9 36 2.2 33 33 ESE 5 7 30.42 1030 10 16 0.00 0.00
2:52 pm 14:52 Partly Cloudy 70 21.1 33 0.6 26 26 ESE 3 6 30.39 1029 10 16 0.00 0.00
3:52 pm 15:52 Mostly Sunny 72 22.2 35 1.7 26 26 E 5 7 30.35 1028 10 16 0.00 0.00
4:52 pm 16:52 Mostly Sunny 73 22.8 36 2.2 26 26 SE 3 6 30.33 1027 10 16 0.00 0.00
5:52 pm 17:52 Mostly Sunny 73 22.8 34 1.1 24 24 Calm 30.32 1027 10 16 0.00 0.00
6:52 pm 18:52 Mostly Sunny 71 21.7 36 2.2 28 28 S 5 7 30.30 1026 10 16 0.00 0.00
7:52 pm 19:52 Mostly Clear 71 21.7 34 1.1 26 26 S 3 6 30.30 1026 10 16 0.00 0.00
8:52 pm 20:52 Mostly Clear 67 19.4 33 0.6 28 28 SSW 5 7 30.30 1026 10 16 0.00 0.00
9:52 pm 21:52 Mostly Clear 63 17.2 46 7.8 54 54 S 3 6 30.31 1026 10 16 0.00 0.00
10:52 pm 22:52 Mostly Clear 61 16.1 43 6.1 52 52 S 7 11 30.30 1026 10 16 0.00 0.00
11:52 pm 23:52 Mostly Clear 60 15.6 39 3.9 46 46 SSW 3 6 30.29 1026 10 16 0.00 0.00

Powered by AerisWeather